[[{"header":{"parameterUnit":"m.s-1","parameterCategory":2,"la1":30.2991,"la2":30.254,"lo1":-89.0895,"lo2":-89.0444,"dy":0.0017,"dx":0.0017,"nx":28,"ny":28,"refTime":"2024-04-15T21:00:00:Z","depth":"0","parameterNumber":2,"parameterNumberName":"U-component_of_CURRENTS"},"data":[0,0,0,0,0,0,0,0,0,0,0,0,0,0,0,0,0,0,0,0,0,0,0,0,0,0,0,0,0,0,0,0,0,0,0,0,0,0,0,0,0,0,0,0,0,0,0,0,0,0,0,0,0,0,0,0,0,0,0.249,0.2491,0,0.2586,0.2587,0.2588,0.2637,0.2637,0.2637,0.2637,0.2674,0.2675,0.2676,0,0,0,0,0,0,0,0,0,0,0,0,0,0.2443,0.2443,0.249,0.2491,0.2492,0.2586,0.2587,0.2589,0.2637,0.2637,0.2637,0.2637,0.2674,0.2675,0.2676,0,0,0,0,0,0,0,0,0,0,0,0,0,0.2495,0.2443,0.249,0.2526,0.2531,0.2585,0.2587,0.2589,0.2637,0.2637,0.2637,0.2637,0.2673,0.2675,0.2676,0.2689,0,0,0.2681,0.2682,0,0,0,0,0,0,0,0,0.2492,0.2497,0.252,0.2524,0.2529,0.2598,0.2584,0.2619,0.2637,0.2598,0.2637,0.2637,0.2642,0.2646,0.2668,0.2691,0.2692,0.2681,0.2682,0.2683,0.2683,0,0,0,0,0,0,0,0.2488,0.2493,0.2529,0.2521,0.2526,0.2571,0.2577,0.2592,0.262,0.2602,0.2605,0.2614,0.2644,0.2666,0.2669,0.2693,0.2681,0.2683,0.2684,0.2684,0.2754,0.2755,0,0,0,0,0,0,0.2468,0.2489,0.2526,0.2532,0.2508,0.2571,0.2578,0.2577,0.2621,0.2628,0.2614,0.2616,0.2663,0.2667,0.267,0.2699,0.2683,0.2684,0.2685,0.2754,0.2755,0.2756,0,0,0,0,0,0,0.2467,0.247,0.2522,0.2512,0.2522,0.2571,0.257,0.2579,0.2609,0.2631,0.2636,0.2634,0.2663,0.2668,0.2692,0.27,0.2685,0.2687,0.2752,0.2754,0.2755,0.2748,0,0,0,0,0,0,0.2465,0.2469,0.2467,0.2511,0.2522,0.2559,0.257,0.2581,0.2613,0.2616,0.265,0.2653,0.2664,0.269,0.2694,0.2702,0.2688,0.2751,0.2753,0.2755,0.2747,0.2749,0.2751,0,0,0,0,0,0.2463,0.2456,0.2466,0.2471,0.2515,0.2559,0.257,0.2606,0.2614,0.2631,0.2652,0.2652,0.2703,0.2692,0.2696,0.2705,0.2751,0.2753,0.2755,0.2746,0.2749,0.2751,0,0,0,0,0,0,0.2426,0.2462,0.2473,0.2475,0.2516,0.2567,0.2582,0.2609,0.2643,0.2641,0.2663,0.2668,0.2702,0.2703,0.269,0.2732,0.2728,0.2731,0.272,0.2722,0.2724,0.2771,0.2689,0,0,0,0,0,0.2418,0.2427,0.247,0.2472,0.2489,0.2537,0.2561,0.2588,0.2621,0.2637,0.2663,0.2686,0.2714,0.2716,0.2747,0.2757,0.2815,0.2768,0.277,0.2771,0.2814,0.2879,0.2891,0.2762,0.2762,0.2762,0,0,0.2406,0.2424,0.2431,0.2467,0.2497,0.2534,0.2552,0.2585,0.2625,0.2632,0.2684,0.2702,0.2724,0.2751,0.2763,0.2747,0.2842,0.2773,0.2774,0.2818,0.2883,0.2896,0.2907,0.2764,0.2763,0.2763,0,0,0.239,0.2401,0.2409,0.2446,0.2491,0.2528,0.2538,0.2595,0.2628,0.2663,0.2695,0.2727,0.2744,0.2785,0.2798,0.2829,0.2863,0.2817,0.2845,0.2906,0.2918,0.2929,0.3035,0.3055,0.2798,0.2798,0.2798,0,0.238,0.2392,0.242,0.2445,0.2478,0.2525,0.2557,0.2601,0.2663,0.2692,0.2674,0.2755,0.2771,0.2833,0.2846,0.2836,0.2886,0.2827,0.2909,0.2921,0.2933,0.3039,0.3061,0.2798,0.2798,0.2798,0.2798,0,0.2379,0.2397,0.2405,0.2455,0.2495,0.2528,0.2591,0.2634,0.266,0.2703,0.2767,0.2797,0.2846,0.2845,0.2853,0.294,0.2958,0.2916,0.2903,0.2945,0.3054,0.3078,0.2798,0.2798,0.2798,0.2798,0,0,0.2347,0.2397,0.2402,0.2431,0.2506,0.2539,0.2602,0.2677,0.2724,0.2766,0.2833,0.2882,0.2904,0.2928,0.2944,0.2995,0.3118,0.2986,0.2989,0.3094,0.3292,0.3258,0.3281,0.3071,0.3075,0.3078,0.3342,0,0.2348,0.2381,0.2415,0.2472,0.2504,0.2569,0.263,0.2702,0.2751,0.2827,0.2876,0.2943,0.2931,0.2955,0.3008,0.3102,0.3178,0.3054,0.3237,0.3245,0.3208,0.3306,0.315,0.3366,0.3365,0.3369,0.3372,0,0.2346,0.2374,0.2412,0.249,0.251,0.2553,0.2655,0.2716,0.2827,0.2867,0.2936,0.2986,0.311,0.3066,0.3263,0.3178,0.3256,0.3314,0.3324,0.332,0.3254,0.3322,0.341,0.3266,0.3409,0.3406,0.3403,0,0.2319,0.2378,0.2406,0.2434,0.2525,0.256,0.2616,0.272,0.2792,0.2909,0.2972,0.3088,0.3177,0.3275,0.3401,0.334,0.3615,0.3533,0.3593,0.3593,0.3518,0.3504,0.3492,0.3689,0.3688,0.3687,0.3686,0,0.2317,0.2345,0.2391,0.2415,0.2475,0.2537,0.262,0.2691,0.2809,0.2901,0.2995,0.3098,0.3231,0.3384,0.3464,0.3629,0.367,0.3661,0.3667,0.3511,0.3494,0.3409,0.3344,0.3697,0.3695,0.3693,0.3691,0,0.2299,0.232,0.2368,0.2441,0.2465,0.2511,0.2632,0.269,0.2804,0.2931,0.2982,0.3166,0.3357,0.3502,0.3704,0.3728,0.3761,0.3908,0.3745,0.3725,0.3589,0.3531,0.3525,0.3427,0.4023,0.4024,0.4025,0,0.2296,0.2309,0.2379,0.2408,0.2442,0.2515,0.2567,0.2681,0.2748,0.2964,0.3024,0.3256,0.3397,0.3705,0.3809,0.3986,0.3823,0.3919,0.3762,0.3613,0.3553,0.3409,0.3314,0.3684,0.3682,0.368,0.3678,0,0.231,0.2325,0.2366,0.2414,0.2459,0.2515,0.259,0.2649,0.2783,0.2893,0.3059,0.3193,0.3494,0.3605,0.3831,0.3896,0.3688,0.3887,0.3762,0.3337,0.3154,0.3048,0.3514,0.3663,0.3664,0.3665,0.3666,0.3667,0.2327,0.2351,0.2388,0.2426,0.2467,0.249,0.2508,0.259,0.2686,0.2816,0.3007,0.316,0.3363,0.3656,0.3698,0.3632,0.3637,0.3506,0.3478,0.3369,0.3162,0.3623,0.3733,0.3734,0.3736,0.3737,0.3739,0,0.2336,0.2351,0.2395,0.2416,0.2412,0.2448,0.2496,0.2486,0.2534,0.2712,0.2847,0.3054,0.3165,0.3284,0.3337,0.3232,0.3083,0.3119,0.2851,0.2801,0.3246,0.3111,0.3051,0.3051,0.3051,0.3051,0.3051,0.3051,0.2344,0.236,0.2363,0.2342,0.2342,0.2294,0.2292,0.2291,0.2372,0.2472,0.2578,0.2748,0.2938,0.3023,0.2921,0.2846,0.2599,0.2505,0.2506,0.2767,0.2798,0.2827,0.2681,0.2532,0.2532,0.1921,0.1916,0.1913]},{"header":{"parameterUnit":"m.s-1","parameterCategory":2,"la1":30.2991,"la2":30.254,"lo1":-89.0895,"lo2":-89.0444,"dy":0.0017,"dx":0.0017,"nx":28,"ny":28,"refTime":"2024-04-15T21:00:00:Z","depth":"0","parameterNumber":3,"parameterNumberName":"V-component_of_CURRENTS"},"data":[0,0,0,0,0,0,0,0,0,0,0,0,0,0,0,0,0,0,0,0,0,0,0,0,0,0,0,0,0,0,0,0,0,0,0,0,0,0,0,0,0,0,0,0,0,0,0,0,0,0,0,0,0,0,0,0,0,0,-0.0128,-0.0128,0,-0.0192,-0.0193,-0.0194,-0.024,-0.024,-0.024,-0.0241,-0.0319,-0.0321,-0.0323,0,0,0,0,0,0,0,0,0,0,0,0,0,-0.0079,-0.008,-0.0128,-0.0128,-0.0129,-0.0192,-0.0193,-0.0194,-0.024,-0.024,-0.024,-0.0241,-0.0318,-0.0321,-0.0323,0,0,0,0,0,0,0,0,0,0,0,0,0,-0.0121,-0.008,-0.0127,-0.0157,-0.016,-0.0191,-0.0193,-0.0194,-0.024,-0.024,-0.024,-0.0241,-0.0318,-0.032,-0.0323,-0.034,0,0,-0.0333,-0.0334,0,0,0,0,0,0,0,0,-0.0118,-0.0123,-0.0152,-0.0155,-0.0158,-0.0205,-0.0204,-0.0243,-0.024,-0.0213,-0.0241,-0.0241,-0.028,-0.0286,-0.0303,-0.0344,-0.0347,-0.0333,-0.0335,-0.0336,-0.0337,0,0,0,0,0,0,0,-0.0115,-0.012,-0.0157,-0.0152,-0.0156,-0.0178,-0.0184,-0.0212,-0.0248,-0.0216,-0.0218,-0.022,-0.0282,-0.03,-0.0305,-0.0348,-0.0333,-0.0336,-0.0338,-0.0339,-0.0372,-0.0371,0,0,0,0,0,0,-0.0098,-0.0117,-0.0154,-0.0158,-0.0134,-0.0178,-0.0185,-0.0193,-0.0248,-0.0255,-0.022,-0.0222,-0.0294,-0.0301,-0.0308,-0.0289,-0.0336,-0.0339,-0.0341,-0.0373,-0.0372,-0.0371,0,0,0,0,0,0,-0.0097,-0.0101,-0.0152,-0.0136,-0.0144,-0.0178,-0.0187,-0.0194,-0.0206,-0.025,-0.0258,-0.0223,-0.0295,-0.0303,-0.0322,-0.0294,-0.034,-0.0343,-0.0374,-0.0373,-0.0372,-0.0278,0,0,0,0,0,0,-0.0096,-0.0101,-0.0105,-0.0135,-0.0144,-0.0156,-0.0187,-0.0195,-0.0205,-0.0208,-0.0255,-0.0263,-0.0295,-0.0317,-0.0325,-0.0299,-0.0346,-0.0375,-0.0374,-0.0372,-0.0282,-0.0273,-0.0266,0,0,0,0,0,-0.0094,-0.0087,-0.0105,-0.0109,-0.0147,-0.0155,-0.0161,-0.0189,-0.0205,-0.0202,-0.0235,-0.0262,-0.0311,-0.0319,-0.0328,-0.0302,-0.0376,-0.0374,-0.0372,-0.0285,-0.0275,-0.0266,0,0,0,0,0,0,-0.0055,-0.0092,-0.0112,-0.0114,-0.0129,-0.0161,-0.0162,-0.0182,-0.0207,-0.021,-0.0257,-0.0267,-0.027,-0.0302,-0.0309,-0.0307,-0.0345,-0.0345,-0.0276,-0.0267,-0.0259,-0.0232,-0.0348,0,0,0,0,0,-0.0051,-0.0062,-0.0092,-0.009,-0.0098,-0.0131,-0.014,-0.0155,-0.0179,-0.0191,-0.0224,-0.0254,-0.027,-0.0281,-0.0306,-0.0309,-0.0319,-0.0297,-0.0289,-0.0281,-0.0266,-0.0264,-0.0254,-0.0364,-0.0364,-0.0364,0,0,-0.003,-0.0054,-0.0057,-0.0084,-0.0102,-0.0096,-0.0137,-0.0138,-0.0127,-0.0194,-0.0195,-0.0229,-0.0266,-0.0266,-0.0269,-0.0287,-0.0252,-0.0279,-0.0272,-0.0261,-0.0261,-0.025,-0.024,-0.0363,-0.0363,-0.0363,0,0,0.0014,-0.0019,-0.0012,-0.0025,-0.0045,-0.0064,-0.0059,-0.0088,-0.0098,-0.0107,-0.0143,-0.0156,-0.0197,-0.0207,-0.0219,-0.0182,-0.0211,-0.0192,-0.0129,-0.0127,-0.0117,-0.0109,-0.009,-0.0081,-0.0187,-0.0186,-0.0186,0,0.0044,0.0042,-0.0006,0.0001,0.0005,-0.0042,-0.0017,-0.0034,-0.0062,-0.0058,-0.0093,-0.0126,-0.0163,-0.0142,-0.0133,-0.016,-0.0163,-0.0161,-0.0114,-0.0107,-0.01,-0.0083,-0.0074,-0.0182,-0.0182,-0.0183,-0.0183,0,0.0094,0.0091,0.01,0.0087,0.0084,0.01,0.0075,0.0073,0.0049,0.0031,0.0035,-0.0017,-0.0029,-0.0046,-0.0083,-0.0046,-0.0063,-0.0104,-0.0134,-0.0083,-0.0069,-0.0061,-0.0175,-0.0177,-0.0178,-0.0179,0,0,0.0173,0.0142,0.0146,0.0154,0.0133,0.0142,0.016,0.0169,0.0198,0.0152,0.0193,0.0143,0.0113,0.0098,0.0056,0.0048,0.0088,-0.0004,-0.0006,0.0024,0.0109,0.0075,0.0079,0.0052,0.0054,0.0055,0.0107,0,0.0233,0.0261,0.0232,0.0276,0.029,0.026,0.0287,0.0286,0.0273,0.0297,0.025,0.0265,0.017,0.0179,0.0154,0.0108,0.0109,0.0079,0.0047,0.0047,0.0016,0.0087,0.008,0.0124,0.0114,0.0115,0.0116,0,0.0297,0.0303,0.0352,0.0366,0.0374,0.0399,0.0439,0.0458,0.0469,0.0463,0.0456,0.0418,0.0414,0.0324,0.0273,0.0257,0.0198,0.0149,0.0149,0.0089,0.0025,0.0065,0.0137,-0.004,0.0127,0.0126,0.0125,0,0.0375,0.0393,0.0436,0.044,0.0449,0.0482,0.0499,0.0515,0.0563,0.0586,0.0633,0.0582,0.0605,0.0503,0.0388,0.034,0.0334,0.0256,0.0175,0.0172,0.0148,0.014,0.0052,0.0235,0.0235,0.0235,0.0235,0,0.0451,0.0487,0.0476,0.0503,0.0576,0.0558,0.0652,0.0658,0.0714,0.0804,0.0734,0.0806,0.0651,0.0618,0.0468,0.036,0.04,0.0213,0.0189,0.0181,0.0176,0.0002,-0.0092,0.0237,0.0236,0.0236,0.0236,0,0.0534,0.0523,0.0575,0.0597,0.0614,0.0671,0.0757,0.0829,0.0863,0.0989,0.1016,0.1011,0.0965,0.0802,0.0672,0.0503,0.0287,0.0327,0.0335,0.0309,0.0025,-0.0061,-0.0139,-0.0195,0.0242,0.0242,0.0242,0,0.0583,0.0613,0.0652,0.0695,0.0713,0.0793,0.0863,0.0906,0.0995,0.1122,0.1203,0.1211,0.1229,0.1022,0.0736,0.05,0.0325,0.0322,0.0211,0.0034,-0.008,-0.014,-0.0186,0.0229,0.0228,0.0228,0.0227,0,0.0678,0.0686,0.0724,0.0805,0.088,0.0971,0.1072,0.1162,0.1246,0.1358,0.1495,0.1527,0.1348,0.1119,0.0786,0.0584,0.0199,0.0305,0.0124,-0.0088,-0.0157,-0.023,0.0176,0.0224,0.0224,0.0225,0.0225,0.0225,0.0754,0.0796,0.0841,0.0923,0.1014,0.1135,0.1219,0.1342,0.1498,0.1668,0.1699,0.1782,0.1441,0.0984,0.0704,0.0163,0.0181,-0.0023,-0.0103,-0.014,-0.0231,0.0172,0.0177,0.0177,0.0177,0.0177,0.0177,0,0.0833,0.0871,0.0956,0.1049,0.1156,0.1185,0.1348,0.144,0.1618,0.1811,0.1925,0.1811,0.1371,0.09,0.0188,-0.0181,-0.0307,-0.0383,-0.048,-0.0501,-0.0137,-0.018,-0.0255,-0.0255,-0.0255,-0.0255,-0.0255,-0.0255,0.0878,0.095,0.098,0.1147,0.1222,0.1359,0.1445,0.1588,0.1739,0.1942,0.2017,0.2058,0.1663,0.0446,-0.0404,-0.0594,-0.0812,-0.0856,-0.0955,-0.0748,-0.0721,-0.0696,-0.076,-0.0956,-0.0957,-0.1277,-0.1281,-0.1284]}],[{"header":{"parameterUnit":"m.s-1","parameterCategory":2,"la1":30.2991,"la2":30.254,"lo1":-89.0895,"lo2":-89.0444,"dy":0.0017,"dx":0.0017,"nx":28,"ny":28,"refTime":"2024-04-15T21:00:00:Z","depth":"2","parameterNumber":2,"parameterNumberName":"U-component_of_CURRENTS"},"data":[0,0,0,0,0,0,0,0,0,0,0,0,0,0,0,0,0,0,0,0,0,0,0,0,0,0,0,0,0,0,0,0,0,0,0,0,0,0,0,0,0,0,0,0,0,0,0,0,0,0,0,0,0,0,0,0,0,0,0.2522,0.2523,0,0.2618,0.2619,0.262,0.2664,0.2664,0.2664,0.2664,0.2684,0.2684,0.2685,0,0,0,0,0,0,0,0,0,0,0,0,0,0.2283,0.2287,0.2522,0.2524,0.2525,0.2617,0.2619,0.262,0.2664,0.2664,0.2664,0.2664,0.2683,0.2684,0.2685,0,0,0,0,0,0,0,0,0,0,0,0,0,0.2383,0.2289,0.2522,0.2558,0.2562,0.2617,0.2619,0.262,0.2664,0.2664,0.2664,0.2664,0.2683,0.2684,0.2685,0.2692,0,0,0.2688,0.2688,0,0,0,0,0,0,0,0,0.2378,0.2392,0.2551,0.2556,0.256,0.2629,0.2541,0.2641,0.2664,0.2626,0.2664,0.2664,0.2658,0.2661,0.2681,0.2693,0.2694,0.2688,0.2688,0.2689,0.2689,0,0,0,0,0,0,0,0.2371,0.2388,0.256,0.2553,0.2558,0.2536,0.2551,0.256,0.264,0.2629,0.2632,0.2643,0.266,0.268,0.2681,0.2694,0.2688,0.2688,0.2689,0.2689,0.2748,0.2749,0,0,0,0,0,0,0.2365,0.2383,0.2557,0.2563,0.2467,0.2541,0.2558,0.2607,0.2642,0.2648,0.2643,0.2645,0.2678,0.268,0.2682,0.2709,0.2689,0.2689,0.269,0.2747,0.2748,0.2749,0,0,0,0,0,0,0.236,0.2382,0.2553,0.2471,0.2492,0.2546,0.26,0.2609,0.2637,0.2653,0.2658,0.2663,0.2678,0.2681,0.2703,0.2709,0.269,0.2691,0.2745,0.2747,0.2749,0.2752,0,0,0,0,0,0,0.2354,0.238,0.2416,0.2473,0.2497,0.2592,0.2601,0.2611,0.2643,0.2647,0.2671,0.2673,0.2678,0.2702,0.2704,0.271,0.2691,0.2744,0.2746,0.2748,0.2751,0.2754,0.2756,0,0,0,0,0,0.2346,0.239,0.2419,0.2439,0.2546,0.2593,0.2603,0.2638,0.2644,0.2662,0.268,0.2672,0.2715,0.2703,0.2706,0.2712,0.2743,0.2746,0.2748,0.275,0.2753,0.2756,0,0,0,0,0,0,0.2288,0.24,0.2433,0.2506,0.255,0.26,0.2616,0.2642,0.2673,0.2671,0.2685,0.2689,0.2717,0.2715,0.2702,0.2737,0.2728,0.2731,0.2729,0.2732,0.2735,0.2774,0.2692,0,0,0,0,0,0.2298,0.2376,0.2448,0.2505,0.2523,0.2571,0.2595,0.2621,0.2653,0.2668,0.2689,0.2706,0.2728,0.273,0.2753,0.2763,0.2799,0.277,0.2773,0.2775,0.281,0.286,0.287,0.2757,0.2757,0.2757,0,0,0.2293,0.2361,0.2406,0.2499,0.253,0.2568,0.2585,0.262,0.2658,0.2662,0.2709,0.2722,0.2738,0.2761,0.2771,0.2757,0.2826,0.2778,0.2779,0.2815,0.2863,0.2875,0.2884,0.2758,0.2758,0.2758,0,0,0.2296,0.2376,0.2428,0.2469,0.2526,0.2563,0.2574,0.2631,0.2661,0.2696,0.2721,0.2749,0.2761,0.2795,0.2805,0.2837,0.2849,0.2826,0.2857,0.2903,0.2913,0.2923,0.2982,0.2996,0.2814,0.2814,0.2814,0,0.2269,0.2369,0.2439,0.2478,0.2514,0.2561,0.2594,0.2636,0.2696,0.2724,0.2707,0.2778,0.2785,0.2842,0.2855,0.2845,0.2875,0.2836,0.2907,0.2917,0.2927,0.2985,0.3001,0.2814,0.2814,0.2814,0.2814,0,0.2319,0.238,0.2399,0.249,0.2531,0.2566,0.2629,0.267,0.2696,0.2737,0.2796,0.2819,0.2863,0.286,0.2864,0.2938,0.294,0.2912,0.2897,0.2939,0.2997,0.3014,0.2815,0.2815,0.2815,0.2814,0,0,0.2299,0.2414,0.2421,0.2456,0.2543,0.2578,0.2639,0.2714,0.2759,0.28,0.2864,0.2903,0.2923,0.2942,0.2955,0.2993,0.3078,0.298,0.2982,0.3038,0.3194,0.3084,0.3091,0.3051,0.3054,0.3056,0.3207,0,0.2306,0.2382,0.2448,0.2508,0.2545,0.261,0.2668,0.2739,0.2787,0.286,0.2904,0.2965,0.2951,0.2973,0.3014,0.3078,0.3123,0.3041,0.315,0.3154,0.3049,0.3107,0.2818,0.2918,0.3224,0.3226,0.3228,0,0.2344,0.2388,0.2447,0.2531,0.2552,0.2593,0.2694,0.2752,0.2859,0.2898,0.2966,0.3013,0.3116,0.3075,0.3211,0.3156,0.319,0.3221,0.3226,0.3141,0.3074,0.2927,0.2937,0.3256,0.3254,0.3252,0.325,0,0.2317,0.2395,0.2444,0.2473,0.2567,0.26,0.2655,0.2755,0.2824,0.2938,0.3,0.31,0.3175,0.3235,0.3307,0.3267,0.3444,0.3386,0.3326,0.3319,0.3108,0.3076,0.3482,0.3482,0.3482,0.3481,0.3481,0,0.2327,0.2362,0.2429,0.2452,0.2513,0.2576,0.2655,0.2725,0.2838,0.2933,0.3021,0.3123,0.3219,0.3324,0.3357,0.3406,0.3485,0.3369,0.3356,0.3099,0.3066,0.3383,0.337,0.3487,0.3486,0.3485,0.3484,0,0.2311,0.2356,0.2406,0.2478,0.2503,0.2546,0.2664,0.272,0.283,0.2961,0.3012,0.3181,0.3322,0.3407,0.353,0.3469,0.3522,0.3513,0.3214,0.3162,0.3358,0.3343,0.3468,0.3466,0.3464,0.3462,0.346,0,0.2329,0.2344,0.2413,0.2443,0.2475,0.2546,0.2597,0.2708,0.2776,0.2997,0.306,0.3248,0.336,0.3497,0.3442,0.3474,0.3553,0.3188,0.3045,0.3385,0.336,0.3349,0.3337,0.278,0.2773,0.2767,0.2763,0,0.2336,0.2349,0.2385,0.2438,0.2483,0.2544,0.2621,0.2674,0.2815,0.2931,0.3095,0.3203,0.3327,0.3216,0.3224,0.3194,0.315,0.3071,0.3526,0.2809,0.2741,0.2715,0.2726,0.2712,0.2717,0.2721,0.2723,0.2725,0.234,0.2364,0.2397,0.2443,0.2487,0.2519,0.2538,0.2625,0.272,0.279,0.2944,0.2949,0.2954,0.2811,0.2767,0.2715,0.292,0.2743,0.2758,0.278,0.2655,0.2584,0.2505,0.2508,0.2511,0.2514,0.2517,0,0.234,0.2364,0.2404,0.2438,0.2442,0.2486,0.2537,0.2515,0.257,0.2569,0.2606,0.2305,0.2259,0.2332,0.217,0.2156,0.2121,0.2077,0.1998,0.2049,0.2095,0.1932,0.1592,0.1589,0.1587,0.1584,0,0,0.2343,0.2358,0.2365,0.2366,0.2387,0.2358,0.2357,0.2334,0.2295,0.2103,0.1985,0.2014,0.2168,0.1778,0.1764,0.1666,0.1837,0.1601,0.2338,0.2291,0.2333,0.2473,0.228,0,0,0,0,0]},{"header":{"parameterUnit":"m.s-1","parameterCategory":2,"la1":30.2991,"la2":30.254,"lo1":-89.0895,"lo2":-89.0444,"dy":0.0017,"dx":0.0017,"nx":28,"ny":28,"refTime":"2024-04-15T21:00:00:Z","depth":"2","parameterNumber":3,"parameterNumberName":"V-component_of_CURRENTS"},"data":[0,0,0,0,0,0,0,0,0,0,0,0,0,0,0,0,0,0,0,0,0,0,0,0,0,0,0,0,0,0,0,0,0,0,0,0,0,0,0,0,0,0,0,0,0,0,0,0,0,0,0,0,0,0,0,0,0,0,-0.0259,-0.026,0,-0.0333,-0.0334,-0.0335,-0.0387,-0.0387,-0.0387,-0.0387,-0.048,-0.0483,-0.0485,0,0,0,0,0,0,0,0,0,0,0,0,0,-0.0188,-0.019,-0.0259,-0.026,-0.026,-0.0333,-0.0334,-0.0335,-0.0387,-0.0387,-0.0387,-0.0387,-0.0479,-0.0482,-0.0485,0,0,0,0,0,0,0,0,0,0,0,0,0,-0.024,-0.019,-0.0259,-0.0292,-0.0296,-0.0332,-0.0334,-0.0336,-0.0387,-0.0387,-0.0387,-0.0387,-0.0478,-0.0482,-0.0485,-0.0505,0,0,-0.0496,-0.0498,0,0,0,0,0,0,0,0,-0.0237,-0.0243,-0.0287,-0.029,-0.0294,-0.0348,-0.0343,-0.0392,-0.0387,-0.0356,-0.0387,-0.0388,-0.0435,-0.0442,-0.0461,-0.0509,-0.0513,-0.0497,-0.0499,-0.05,-0.0501,0,0,0,0,0,0,0,-0.0233,-0.024,-0.0292,-0.0287,-0.0292,-0.0312,-0.0319,-0.0353,-0.0397,-0.0359,-0.0362,-0.0364,-0.0438,-0.0457,-0.0463,-0.0515,-0.0497,-0.05,-0.0502,-0.0503,-0.055,-0.0549,0,0,0,0,0,0,-0.0216,-0.0236,-0.0289,-0.0294,-0.0261,-0.0313,-0.0321,-0.0333,-0.0396,-0.0405,-0.0364,-0.0367,-0.0451,-0.0459,-0.0467,-0.0454,-0.05,-0.0504,-0.0506,-0.055,-0.0549,-0.0548,0,0,0,0,0,0,-0.0214,-0.022,-0.0286,-0.0263,-0.0273,-0.0313,-0.0327,-0.0335,-0.0348,-0.04,-0.041,-0.0368,-0.0451,-0.0462,-0.0483,-0.0459,-0.0505,-0.0509,-0.0552,-0.055,-0.0549,-0.0453,0,0,0,0,0,0,-0.0212,-0.0219,-0.0226,-0.0262,-0.0273,-0.0294,-0.0326,-0.0336,-0.0348,-0.0351,-0.0406,-0.0415,-0.0452,-0.0477,-0.0487,-0.0465,-0.0511,-0.0553,-0.0551,-0.0549,-0.0457,-0.0448,-0.044,0,0,0,0,0,-0.0209,-0.0207,-0.0226,-0.0233,-0.0281,-0.0293,-0.0301,-0.0332,-0.0347,-0.0347,-0.0381,-0.0413,-0.0473,-0.048,-0.0491,-0.0469,-0.0554,-0.0551,-0.0549,-0.0461,-0.045,-0.0441,0,0,0,0,0,0,-0.0174,-0.0213,-0.0235,-0.0244,-0.0263,-0.03,-0.0302,-0.0324,-0.0353,-0.0354,-0.0407,-0.0419,-0.0428,-0.0463,-0.0469,-0.0477,-0.0516,-0.0516,-0.0445,-0.0435,-0.0427,-0.0402,-0.0514,0,0,0,0,0,-0.0171,-0.0183,-0.0217,-0.0222,-0.023,-0.0266,-0.0277,-0.0294,-0.0321,-0.0334,-0.0372,-0.0407,-0.043,-0.0442,-0.0474,-0.0481,-0.0507,-0.0473,-0.0464,-0.0457,-0.0444,-0.0461,-0.0452,-0.0541,-0.0542,-0.0542,0,0,-0.0157,-0.0179,-0.0186,-0.0216,-0.0235,-0.0232,-0.0273,-0.0276,-0.0269,-0.0339,-0.0344,-0.0383,-0.0426,-0.0432,-0.0438,-0.0456,-0.0445,-0.0455,-0.0448,-0.0439,-0.0457,-0.0449,-0.0441,-0.054,-0.054,-0.0541,0,0,-0.012,-0.0155,-0.0148,-0.0161,-0.018,-0.02,-0.0195,-0.0227,-0.0238,-0.0251,-0.0291,-0.0309,-0.0358,-0.0375,-0.0391,-0.0356,-0.0403,-0.0368,-0.0305,-0.032,-0.0313,-0.0307,-0.0325,-0.0321,-0.0361,-0.0361,-0.0361,0,-0.0102,-0.0101,-0.0144,-0.0136,-0.0134,-0.0178,-0.0155,-0.0174,-0.0207,-0.0204,-0.0237,-0.0285,-0.0326,-0.0317,-0.0307,-0.0336,-0.0356,-0.0337,-0.0308,-0.0303,-0.0298,-0.0319,-0.0316,-0.0356,-0.0357,-0.0357,-0.0358,0,-0.0054,-0.0057,-0.0048,-0.0057,-0.0061,-0.0047,-0.0072,-0.0075,-0.0098,-0.0118,-0.0122,-0.018,-0.0201,-0.0219,-0.0256,-0.0235,-0.0264,-0.0297,-0.0329,-0.0283,-0.0308,-0.0307,-0.0349,-0.0351,-0.0352,-0.0354,0,0,-0.0005,-0.0013,-0.0008,0.0001,-0.0015,-0.0009,0.0009,0.0015,0.0037,-0.0008,0.0021,-0.0032,-0.0064,-0.0084,-0.013,-0.0149,-0.014,-0.0202,-0.0205,-0.0213,-0.0175,-0.0218,-0.0221,-0.0169,-0.0168,-0.0168,-0.0205,0,0.0048,0.0089,0.007,0.0111,0.0128,0.01,0.0121,0.0119,0.0105,0.0117,0.0069,0.007,-0.0012,-0.0012,-0.0043,-0.0114,-0.0132,-0.0127,-0.0226,-0.0228,-0.0266,-0.0219,-0.0182,-0.0214,-0.0204,-0.0204,-0.0204,0,0.0109,0.0121,0.0178,0.0195,0.0202,0.0223,0.0255,0.0269,0.027,0.0261,0.0249,0.0207,0.0185,0.0108,0.0013,0.0019,-0.0063,-0.0129,-0.0133,-0.0203,-0.0268,-0.0261,-0.0212,-0.0202,-0.0202,-0.0202,-0.0203,0,0.0178,0.0202,0.0255,0.0259,0.0268,0.0298,0.0311,0.0319,0.0349,0.0364,0.0395,0.0336,0.0332,0.0219,0.0076,0.0051,-0.0034,-0.0088,-0.0203,-0.0208,-0.021,-0.0216,-0.0145,-0.0144,-0.0144,-0.0144,-0.0144,0,0.0249,0.0286,0.0291,0.0315,0.0375,0.0363,0.0433,0.0438,0.0472,0.0531,0.048,0.052,0.036,0.0289,0.0133,-0.0025,0.0009,-0.0177,-0.0213,-0.0177,-0.0179,-0.0201,-0.0208,-0.0146,-0.0145,-0.0145,-0.0145,0,0.0317,0.0329,0.0372,0.0392,0.0409,0.045,0.0509,0.055,0.0586,0.0669,0.0689,0.0667,0.058,0.0405,0.0231,0.0065,-0.0093,-0.0159,-0.0108,-0.0138,-0.0272,-0.0273,-0.0287,-0.0289,-0.029,-0.0291,-0.0292,0,0.0362,0.0388,0.0423,0.0453,0.0467,0.0526,0.0565,0.0602,0.0653,0.0762,0.0806,0.0782,0.075,0.0482,0.0221,-0.0041,-0.0083,-0.02,-0.0249,-0.025,-0.0284,-0.0282,-0.0281,-0.0213,-0.0213,-0.0213,-0.0213,0,0.0404,0.0411,0.0434,0.0494,0.0541,0.0616,0.0683,0.0744,0.081,0.0893,0.0984,0.0982,0.0775,0.0534,0.0187,0.0007,-0.0161,-0.0215,-0.0203,-0.0191,-0.0185,-0.0217,-0.0217,-0.0215,-0.0215,-0.0215,-0.0215,-0.0214,0.0411,0.0429,0.0447,0.0513,0.0586,0.0691,0.0758,0.0848,0.0956,0.1092,0.1079,0.1082,0.0827,0.0391,0.0117,-0.0161,-0.0167,-0.0298,-0.0294,-0.0291,-0.0285,-0.0282,-0.0329,-0.0329,-0.033,-0.033,-0.033,0,0.0378,0.0412,0.0462,0.0536,0.0614,0.0692,0.0818,0.0874,0.1012,0.115,0.1215,0.0958,0.0705,0.0432,0.0025,-0.0254,-0.0259,-0.034,-0.028,-0.0277,-0.0274,-0.0265,-0.0306,-0.0306,-0.0307,-0.0307,0,0,0.035,0.0356,0.0384,0.0506,0.062,0.0758,0.0851,0.0951,0.1043,0.1168,0.1207,0.1153,0.0795,0.0489,0.0152,-0.0063,-0.0112,-0.0113,-0.0105,0.001,0.0016,-0.0224,-0.0203,0,0,0,0,0]}],[{"header":{"parameterUnit":"m.s-1","parameterCategory":2,"la1":30.2991,"la2":30.254,"lo1":-89.0895,"lo2":-89.0444,"dy":0.0017,"dx":0.0017,"nx":28,"ny":28,"refTime":"2024-04-15T21:00:00:Z","depth":"4","parameterNumber":2,"parameterNumberName":"U-component_of_CURRENTS"},"data":[0,0,0,0,0,0,0,0,0,0,0,0,0,0,0,0,0,0,0,0,0,0,0,0,0,0,0,0,0,0,0,0,0,0,0,0,0,0,0,0,0,0,0,0,0,0,0,0,0,0,0,0,0,0,0,0,0,0,0.0845,0.0846,0,0.0783,0.0781,0.0779,0.0761,0.0763,0.0765,0.0766,0.0942,0.0945,0.0948,0,0,0,0,0,0,0,0,0,0,0,0,0,0.0897,0.0895,0.0845,0.0846,0.0847,0.0783,0.0781,0.0778,0.076,0.0763,0.0765,0.0767,0.0941,0.0945,0.0948,0,0,0,0,0,0,0,0,0,0,0,0,0,0.0842,0.0894,0.0845,0.0843,0.0844,0.0784,0.0781,0.0777,0.076,0.0763,0.0766,0.0768,0.094,0.0945,0.0949,0.0918,0,0,0.0962,0.0964,0,0,0,0,0,0,0,0,0.0845,0.0838,0.0843,0.0843,0.0844,0.0798,0.0864,0.0842,0.0759,0.0773,0.0766,0.077,0.0926,0.0931,0.0885,0.0926,0.0934,0.0962,0.0965,0.0967,0.0968,0,0,0,0,0,0,0,0.0849,0.084,0.0803,0.0844,0.0845,0.0829,0.0822,0.0857,0.0825,0.0772,0.0775,0.0795,0.0925,0.088,0.089,0.0936,0.0962,0.0966,0.0969,0.0971,0.1291,0.1296,0,0,0,0,0,0,0.089,0.0844,0.0805,0.0803,0.0871,0.0827,0.0819,0.0795,0.082,0.0829,0.0793,0.0795,0.0871,0.0885,0.0897,0.1065,0.0967,0.0971,0.0973,0.1285,0.1292,0.1298,0,0,0,0,0,0,0.0891,0.0885,0.0808,0.0839,0.083,0.0825,0.0797,0.0793,0.0816,0.0835,0.0846,0.083,0.0874,0.0891,0.1014,0.1066,0.0973,0.0977,0.1278,0.1287,0.1295,0.1274,0,0,0,0,0,0,0.0891,0.0884,0.0898,0.084,0.0831,0.0807,0.0796,0.079,0.0828,0.0831,0.0871,0.0885,0.0878,0.1008,0.1018,0.107,0.098,0.127,0.1282,0.1292,0.1268,0.1281,0.1293,0,0,0,0,0,0.0892,0.0881,0.0897,0.0896,0.0841,0.081,0.0801,0.0796,0.0828,0.0828,0.09,0.0887,0.1087,0.1014,0.1026,0.108,0.1265,0.1279,0.1292,0.1262,0.1279,0.1293,0,0,0,0,0,0,0.0902,0.0878,0.0894,0.0877,0.0874,0.0815,0.0816,0.0834,0.0874,0.0907,0.0934,0.0953,0.1053,0.1113,0.1033,0.1223,0.1186,0.1202,0.116,0.1176,0.1189,0.1168,0.0984,0,0,0,0,0,0.0917,0.0898,0.0891,0.0878,0.0882,0.0867,0.0868,0.0873,0.0898,0.0915,0.0955,0.1041,0.1101,0.1181,0.1206,0.1329,0.1341,0.1394,0.1406,0.1416,0.142,0.1493,0.1508,0.1342,0.1342,0.1342,0,0,0.091,0.0905,0.0892,0.0882,0.0867,0.0871,0.0869,0.0878,0.0898,0.0936,0.0996,0.1046,0.1133,0.1225,0.1289,0.1303,0.1474,0.1433,0.1439,0.1438,0.1507,0.1522,0.1535,0.1351,0.1349,0.1348,0,0,0.0883,0.089,0.0874,0.0883,0.0907,0.09,0.0931,0.0923,0.0939,0.1022,0.1045,0.1135,0.1265,0.1295,0.1345,0.147,0.1491,0.1549,0.164,0.171,0.1721,0.1731,0.1747,0.1759,0.1612,0.1612,0.1612,0,0.0902,0.0873,0.0869,0.0876,0.0897,0.0931,0.0942,0.0948,0.0994,0.1047,0.1066,0.1235,0.127,0.1392,0.1449,0.1477,0.1548,0.1546,0.1714,0.1725,0.1736,0.175,0.1763,0.1612,0.1612,0.1612,0.1612,0,0.0853,0.0871,0.0862,0.0884,0.0902,0.0914,0.0949,0.1006,0.1072,0.1104,0.1228,0.1269,0.1416,0.1435,0.1487,0.1622,0.1651,0.1657,0.1639,0.1749,0.176,0.1774,0.1613,0.1613,0.1613,0.1613,0,0,0.0799,0.0828,0.0826,0.0871,0.0919,0.0927,0.0997,0.107,0.1147,0.1222,0.1324,0.1416,0.15,0.1566,0.1628,0.1696,0.1791,0.1769,0.1772,0.1722,0.1967,0.1795,0.1793,0.1873,0.1876,0.1878,0.1933,0,0.0781,0.0795,0.0808,0.0859,0.0896,0.0969,0.1022,0.1113,0.1197,0.1304,0.1393,0.1503,0.1539,0.1646,0.1723,0.1776,0.1839,0.1776,0.1926,0.1929,0.171,0.1805,0.1889,0.1943,0.1946,0.1948,0.195,0,0.0717,0.0771,0.0795,0.0902,0.0918,0.0969,0.1107,0.1168,0.1328,0.1416,0.158,0.1644,0.18,0.1783,0.1942,0.1944,0.1984,0.1977,0.198,0.1834,0.1783,0.183,0.1974,0.1973,0.1971,0.1969,0.1968,0,0.0674,0.0748,0.0777,0.0808,0.093,0.1005,0.1102,0.124,0.1323,0.1535,0.1626,0.18,0.1899,0.2007,0.2059,0.2068,0.2157,0.215,0.1995,0.1981,0.2118,0.2107,0.2219,0.2219,0.2219,0.2219,0.2219,0,0.0624,0.0672,0.0787,0.0825,0.0921,0.103,0.1143,0.1275,0.1461,0.1536,0.1728,0.1785,0.1976,0.2045,0.2103,0.2097,0.222,0.2007,0.1996,0.2112,0.21,0.2125,0.2113,0.2221,0.222,0.222,0.222,0,0.0545,0.0603,0.068,0.0838,0.0899,0.0989,0.1189,0.1256,0.1476,0.1586,0.1678,0.1853,0.1942,0.2034,0.2136,0.2106,0.2121,0.207,0.2164,0.2157,0.1886,0.1875,0.193,0.1924,0.192,0.1916,0.1913,0,0.0486,0.052,0.0663,0.0704,0.0787,0.0945,0.1014,0.1264,0.1329,0.1559,0.1575,0.1734,0.1809,0.1832,0.1951,0.2029,0.1994,0.2,0.1961,0.1879,0.1864,0.1859,0.1854,0.1906,0.1904,0.1903,0.1902,0,0.043,0.047,0.0521,0.061,0.0694,0.0781,0.093,0.0996,0.1219,0.139,0.1467,0.1552,0.1597,0.1701,0.1769,0.1813,0.2015,0.1953,0.1962,0.1925,0.185,0.1839,0.1839,0.1886,0.1889,0.189,0.1891,0,0.0364,0.0368,0.042,0.0496,0.0572,0.0627,0.0725,0.0821,0.0961,0.1224,0.121,0.138,0.1521,0.1581,0.1642,0.1689,0.167,0.1636,0.1662,0.168,0.1579,0.1446,0.1355,0,0,0,0,0,0.03,0.0294,0.0316,0.0382,0.0439,0.0512,0.0643,0.0738,0.093,0.0932,0.1109,0.1151,0.1278,0.1375,0.1379,0.1525,0.1668,0.1522,0.1637,0.1799,0.1817,0.1723,0,0,0,0,0,0,0.0256,0.0262,0.0273,0.0281,0.0305,0.0376,0.0464,0.0585,0.0624,0.0819,0.0894,0.1051,0.1191,0.1254,0.1343,0.1375,0.1419,0.1644,0.164,0.1789,0.1805,0.182,0.173,0,0,0,0,0]},{"header":{"parameterUnit":"m.s-1","parameterCategory":2,"la1":30.2991,"la2":30.254,"lo1":-89.0895,"lo2":-89.0444,"dy":0.0017,"dx":0.0017,"nx":28,"ny":28,"refTime":"2024-04-15T21:00:00:Z","depth":"4","parameterNumber":3,"parameterNumberName":"V-component_of_CURRENTS"},"data":[0,0,0,0,0,0,0,0,0,0,0,0,0,0,0,0,0,0,0,0,0,0,0,0,0,0,0,0,0,0,0,0,0,0,0,0,0,0,0,0,0,0,0,0,0,0,0,0,0,0,0,0,0,0,0,0,0,0,0.0142,0.0143,0,0.016,0.016,0.0161,0.0173,0.0173,0.0173,0.0173,0.0044,0.0041,0.0038,0,0,0,0,0,0,0,0,0,0,0,0,0,0.008,0.0082,0.0142,0.0143,0.0143,0.016,0.016,0.0161,0.0173,0.0173,0.0173,0.0173,0.0046,0.0041,0.0037,0,0,0,0,0,0,0,0,0,0,0,0,0,0.0104,0.0082,0.0142,0.015,0.0151,0.016,0.016,0.0161,0.0173,0.0173,0.0173,0.0173,0.0047,0.0042,0.0037,0.0004,0,0,0.0021,0.0019,0,0,0,0,0,0,0,0,0.0103,0.0107,0.0149,0.015,0.0151,0.0164,0.0091,0.0101,0.0173,0.0166,0.0173,0.0173,0.007,0.0063,0.007,-0.0002,-0.0007,0.0021,0.0017,0.0015,0.0014,0,0,0,0,0,0,0,0.0102,0.0106,0.015,0.0149,0.015,0.014,0.0144,0.0094,0.0115,0.0166,0.0167,0.0168,0.007,0.0075,0.0066,-0.0009,0.0021,0.0016,0.0013,0.0011,-0.0181,-0.0183,0,0,0,0,0,0,0.01,0.0105,0.015,0.0151,0.0126,0.0141,0.0145,0.016,0.0119,0.0114,0.0168,0.0168,0.0084,0.0072,0.0061,0.0011,0.0015,0.001,0.0007,-0.0179,-0.0181,-0.0184,0,0,0,0,0,0,0.0099,0.0104,0.0149,0.0126,0.0131,0.0142,0.0159,0.0161,0.016,0.0122,0.0114,0.0164,0.0083,0.0069,0.0009,0.0006,0.0008,0.0003,-0.0177,-0.018,-0.0182,-0.0085,0,0,0,0,0,0,0.0097,0.0104,0.0113,0.0127,0.0132,0.0161,0.0159,0.0161,0.016,0.0161,0.0115,0.0105,0.0082,0.0017,0.0004,-0.0001,-0.0001,-0.0174,-0.0178,-0.0182,-0.0086,-0.0084,-0.0083,0,0,0,0,0,0.0095,0.0121,0.0114,0.0119,0.0145,0.0161,0.0163,0.017,0.0159,0.0167,0.0124,0.0106,-0.0017,0.0012,-0.0003,-0.0009,-0.0172,-0.0177,-0.0181,-0.0086,-0.0084,-0.0083,0,0,0,0,0,0,0.01,0.0125,0.0117,0.0148,0.015,0.0163,0.0176,0.0164,0.0141,0.0135,0.0089,0.0075,0.0027,-0.0025,0.0008,-0.0085,-0.0102,-0.011,-0.0025,-0.0024,-0.0023,-0.0011,-0.0005,0,0,0,0,0,0.0103,0.0129,0.0136,0.0157,0.0163,0.0161,0.0165,0.0166,0.0148,0.014,0.0107,0.0049,-0.0003,-0.0039,-0.0081,-0.0137,-0.0172,-0.0161,-0.0159,-0.0157,-0.0164,-0.0216,-0.0218,-0.0198,-0.0198,-0.0198,0,0,0.0109,0.0125,0.0139,0.0159,0.0166,0.0181,0.0165,0.0179,0.0184,0.0123,0.0116,0.0063,-0.0017,-0.0058,-0.0089,-0.0103,-0.0181,-0.0163,-0.0159,-0.0168,-0.0221,-0.0222,-0.0223,-0.0201,-0.0201,-0.02,0,0,0.0145,0.0151,0.0186,0.0186,0.0196,0.0196,0.0195,0.02,0.0198,0.017,0.0128,0.0074,-0.0006,-0.0047,-0.0087,-0.0119,-0.0161,-0.0153,-0.0143,-0.0192,-0.0193,-0.0194,-0.0218,-0.0223,-0.0164,-0.0164,-0.0163,0,0.0144,0.019,0.0194,0.0218,0.0221,0.0202,0.0223,0.022,0.0201,0.0185,0.0174,0.0048,0.0006,-0.0071,-0.0075,-0.0108,-0.0148,-0.0126,-0.0184,-0.0186,-0.0189,-0.0214,-0.022,-0.0159,-0.016,-0.016,-0.0161,0,0.0204,0.0227,0.0247,0.027,0.0274,0.0289,0.0281,0.0274,0.0254,0.0235,0.0169,0.0102,0.0012,-0.0006,-0.0047,-0.0109,-0.0131,-0.0156,-0.0169,-0.0184,-0.0211,-0.0218,-0.0154,-0.0155,-0.0156,-0.0157,0,0,0.0222,0.0279,0.0283,0.0295,0.0298,0.0309,0.0311,0.0302,0.029,0.0246,0.021,0.0127,0.0065,0.0011,-0.0056,-0.0096,-0.0123,-0.014,-0.0144,-0.0129,-0.0227,-0.0206,-0.0213,-0.0162,-0.0164,-0.0165,-0.0227,0,0.0257,0.0327,0.0339,0.0371,0.0393,0.0366,0.0372,0.0351,0.032,0.0282,0.0191,0.0131,0.0075,0.0022,-0.0032,-0.0105,-0.0145,-0.0104,-0.0247,-0.0251,-0.0202,-0.0222,-0.017,-0.0233,-0.0235,-0.0236,-0.0237,0,0.0301,0.0339,0.0403,0.0418,0.0425,0.0437,0.042,0.0419,0.0356,0.0319,0.0221,0.0146,0.0048,0.0016,-0.0123,-0.0103,-0.0166,-0.0208,-0.0212,-0.0236,-0.0245,-0.0229,-0.0252,-0.0251,-0.0249,-0.0249,-0.0248,0,0.0321,0.037,0.0428,0.0433,0.0456,0.0464,0.0464,0.0429,0.0433,0.0329,0.0299,0.0155,0.0082,-0.0025,-0.0136,-0.0141,-0.0263,-0.0278,-0.0316,-0.0314,-0.0352,-0.035,-0.0365,-0.0365,-0.0365,-0.0365,-0.0365,0,0.035,0.0389,0.0443,0.0466,0.0503,0.0498,0.0523,0.0486,0.0454,0.0444,0.0309,0.0252,0.0067,-0.0032,-0.0131,-0.0248,-0.0271,-0.0317,-0.0336,-0.0309,-0.0303,-0.0355,-0.0353,-0.0367,-0.0367,-0.0366,-0.0366,0,0.0372,0.0421,0.0468,0.0504,0.0522,0.0541,0.0583,0.0595,0.0545,0.0521,0.0485,0.0323,0.0177,0.0024,-0.0146,-0.0229,-0.0337,-0.037,-0.0314,-0.0328,-0.0354,-0.0347,-0.0421,-0.0421,-0.0421,-0.0421,-0.0421,0,0.04,0.0436,0.0493,0.0532,0.0558,0.0602,0.064,0.0631,0.0637,0.0567,0.0545,0.0399,0.0276,0.0054,-0.0115,-0.0305,-0.033,-0.0389,-0.0391,-0.0352,-0.0364,-0.0357,-0.035,-0.0421,-0.0421,-0.0421,-0.0421,0,0.0424,0.0451,0.0491,0.0565,0.0621,0.0685,0.0726,0.0732,0.0709,0.0689,0.0584,0.0439,0.0275,0.0064,-0.0089,-0.0223,-0.0355,-0.0389,-0.039,-0.0393,-0.0353,-0.0363,-0.0356,-0.0421,-0.0421,-0.0421,-0.0421,0,0.0435,0.0458,0.0516,0.0583,0.0668,0.0726,0.0745,0.0751,0.0758,0.0674,0.0643,0.0454,0.0338,0.0108,-0.0027,-0.0167,-0.0203,-0.0248,-0.0257,-0.026,-0.0199,-0.0124,-0.0141,0,0,0,0,0,0.0432,0.0474,0.0534,0.0604,0.0692,0.0741,0.0791,0.0798,0.0778,0.0721,0.0685,0.0535,0.0294,0.0171,0.0037,-0.0029,-0.023,-0.0192,-0.0286,-0.042,-0.042,-0.0375,0,0,0,0,0,0,0.0442,0.0495,0.0526,0.0627,0.0677,0.0768,0.0798,0.0782,0.0741,0.0697,0.0567,0.0515,0.0276,0.038,0.0039,-0.0006,-0.0082,-0.0301,-0.0303,-0.0419,-0.042,-0.042,-0.0374,0,0,0,0,0]}]]